Location: Artiguedieu
(43.5000°N, 0.5454°E)
Time: 07:40:33
(UTC+00:00)

Explorer 7 - Pass Details

Date: 09 August 2021
Orbit: 484 x 676 km, 50.3° (Epoch: 22 September)

Event Time Altitude Azimuth Distance (km) Brightness Sun altitude
Rises 05:48:23 0° 296° (WNW) 2,569 9.8 8.1°
Reaches altitude 10° 05:50:39 10° 306° (NW) 1,703 9.0 8.5°
Maximum altitude 05:54:13 35° 14° (NNE) 838 8.2 9.2°
Drops below altitude 10° 05:57:56 10° 81° (E) 1,779 12.9 9.8°
Sets 06:00:22 0° 90° (E) 2,703 12.2 10.3°
